Location: *
(47.2969°N, 10.2930°E)
Time: 09:28:39
(UTC+00:00)

Cosmos 1954 Rocket - Pass Details

Date: 09 April 2020
Orbit: 752 x 781 km, 74.1° (Epoch: 24 May)

Event Time Altitude Azimuth Distance (km) Brightness Sun altitude
Rises 19:27:54 0° 195° (SSW) 3,226 7.1 -14.7°
Reaches altitude 10° 19:30:16 10° 194° (SSW) 2,300 6.3 -15.0°
Maximum altitude 19:35:28 76° 110° (ESE) 790 3.9 -15.8°
Drops below altitude 10° 19:40:41 10° 25° (NNE) 2,298 6.6 -16.5°
Sets 19:43:03 0° 24° (NNE) 3,224 7.3 -16.9°
